INTELSAT 14 (IS-14)

Last updated on Wed Sep 09 2026 00:02:59 GMT+0000 (Coordinated Universal Time)

1 36097U 09064A 26251.44002994 -.00000294 00000+0 00000+0 0 9996 2 36097 0.1236 84.9843 0002802 105.4298 270.4978 1.00270044 61446
UTC large
Height (km)
Speed (km/s)
/
Latitude / Longitude
Inclination (degrees)
Orbital Period (minutes)
Azimuth
Elevation
Range (km)
Doppler Factor

Next 0 passes for location: London (51.5072 / 0.1276)

No passes found over London.
INTELSAT 14 (IS-14)